Cocoa Beach, FL

3:04 AM EDT on October 17, 2017 (GMT -0400)
Patrick Air Force Base

Weather History for KCOF - October, 2011

Change the Weather History Date:

Monday, October 24, 2011

  Actual Average Record
Temperature  
Mean Temperature 70 °F -  
Max Temperature 76 °F 79 °F 88 °F (2007)
Min Temperature 64 °F 69 °F 53 °F (2006)
Cooling Degree Days 5    
Growing Degree Days 20 (Base 50)    
Moisture  
Dew Point 59 °F    
Average Humidity 70    
Maximum Humidity 89    
Minimum Humidity 45    
Precipitation  
Precipitation 0.00 in - - ()
Sea Level Pressure  
Sea Level Pressure 30.06 in    
Wind  
Wind Speed 9 mph (NNW)    
Max Wind Speed 15 mph    
Max Gust Speed -    
Visibility 10 miles    
Events      
Averages and records for this station are not official NWS values.
T = Trace of Precipitation, MM = Missing Value Source: NWS Daily Summary

Daily Weather History Graph

Daily Weather History Graph

Search for Another Location

Airport or City:

Trip Planner

Search our weather history database for the weather conditions in past years. The results will help you decide how hot, cold, wet, or windy it might be!

Date:

Astronomy

Oct. 24, 2011 Rise Set
Actual Time 7:28 AM EDT 6:44 PM EDT
Civil Twilight 7:04 AM EDT 7:08 PM EDT
Nautical Twilight 6:36 AM EDT 7:36 PM EDT
Astronomical Twilight 6:09 AM EDT 8:03 PM EDT
Moon 4:55 AM EDT (10/24) 5:01 PM EDT (10/24)
Length of Visible Light 12h 04m
Length of Day
11h 16m
Waning Crescent, 7% of the Moon is Illuminated
Oct 24
Waning Crescent
Oct 26
New
Nov 2
First Quarter
Nov 10
Full
Nov 18
Last Quarter

Hourly Weather History & Observations

Time (EDT) Temp. Dew Point Humidity Pressure Visibility Wind Dir Wind Speed Gust Speed Precip Events Conditions
12:55 AM 67.6 °F 61.7 °F 81% 30.03 in 10.0 mi NNW 5.8 mph - N/A   Clear
1:55 AM 67.6 °F 61.9 °F 82% 30.02 in 10.0 mi NW 5.8 mph - N/A   Clear
2:55 AM 66.7 °F 62.6 °F 86% 30.01 in 10.0 mi WNW 5.8 mph - N/A   Clear
3:55 AM 65.7 °F 61.0 °F 85% 30.00 in 10.0 mi NNW 5.8 mph - N/A   Clear
4:55 AM 65.7 °F 60.6 °F 84% 30.00 in 10.0 mi NW 5.8 mph - N/A   Clear
5:55 AM 64.9 °F 61.3 °F 88% 30.02 in 10.0 mi WNW 6.9 mph - N/A   Clear
6:55 AM 64.2 °F 60.6 °F 88% 30.03 in 10.0 mi NW 9.2 mph - N/A   Clear
7:55 AM 64.6 °F 61.3 °F 89% 30.05 in 10.0 mi NW 11.5 mph - N/A   Clear
8:55 AM 67.3 °F 61.5 °F 82% 30.06 in 10.0 mi NW 13.8 mph - N/A   Clear
9:55 AM 69.8 °F 63.0 °F 79% 30.08 in 10.0 mi NW 10.4 mph - N/A   Clear
10:55 AM 73.0 °F 62.4 °F 69% 30.08 in 10.0 mi NW 12.7 mph - N/A   Clear
11:55 AM 74.8 °F 60.4 °F 61% 30.09 in 10.0 mi NNW 13.8 mph - N/A   Clear
12:55 PM 76.3 °F 58.3 °F 54% 30.08 in 10.0 mi NNW 12.7 mph - N/A   Clear
1:55 PM 75.9 °F 54.7 °F 48% 30.06 in 10.0 mi North 11.5 mph - N/A   Clear
2:55 PM 76.3 °F 53.4 °F 45% 30.04 in 10.0 mi North 11.5 mph - N/A   Clear
3:55 PM 75.2 °F 60.1 °F 59% 30.04 in 10.0 mi North 12.7 mph - N/A   Clear
4:55 PM 74.1 °F 59.9 °F 61% 30.04 in 10.0 mi North 13.8 mph - N/A   Clear
5:55 PM 72.9 °F 59.9 °F 64% 30.05 in 10.0 mi North 13.8 mph - N/A   Clear
6:55 PM 71.1 °F 58.6 °F 65% 30.06 in 10.0 mi North 15.0 mph - N/A   Clear
7:55 PM 70.0 °F 55.4 °F 60% 30.08 in 10.0 mi North 12.7 mph - N/A   Clear
8:55 PM 69.6 °F 55.8 °F 61% 30.11 in 10.0 mi North 12.7 mph - N/A   Clear
9:55 PM 68.4 °F 56.8 °F 67% 30.12 in 10.0 mi North 9.2 mph - N/A   Clear
10:55 PM 68.7 °F 57.6 °F 67% 30.13 in 10.0 mi North 10.4 mph - N/A   Clear
11:55 PM 70.2 °F 58.3 °F 66% 30.13 in 10.0 mi North 10.4 mph - N/A   Clear